TimeEDT,TemperatureF,Dew PointF,Humidity,Sea Level PressureIn,VisibilityMPH,Wind Direction,Wind SpeedMPH,Gust SpeedMPH,PrecipitationIn,Events,Conditions,WindDirDegrees,DateUTC
12:54 AM,52.0,44.1,74,29.87,-9999.0,North,-9999.0,-,N/A,,Unknown,0,2012-10-29 04:54:00
1:54 AM,50.0,44.1,80,29.84,-9999.0,North,-9999.0,-,N/A,,Unknown,0,2012-10-29 05:54:00
2:54 AM,50.0,44.1,80,29.81,-9999.0,North,-9999.0,-,N/A,,Unknown,0,2012-10-29 06:54:00
3:54 AM,48.9,44.1,83,29.80,-9999.0,North,-9999.0,-,N/A,,Unknown,0,2012-10-29 07:54:00
4:54 AM,48.0,44.1,86,29.79,-9999.0,North,-9999.0,-,N/A,,Unknown,0,2012-10-29 08:54:00
5:54 AM,48.0,44.1,86,29.78,-9999.0,North,-9999.0,-,N/A,,Unknown,0,2012-10-29 09:54:00
6:54 AM,50.0,45.0,83,29.77,-9999.0,North,-9999.0,-,N/A,,Unknown,0,2012-10-29 10:54:00
7:54 AM,52.0,45.0,77,29.76,-9999.0,North,-9999.0,-,N/A,,Unknown,0,2012-10-29 11:54:00
8:54 AM,54.0,46.0,75,29.75,-9999.0,North,-9999.0,-,N/A,,Unknown,0,2012-10-29 12:54:00
9:54 AM,55.0,46.9,74,29.74,-9999.0,North,-9999.0,-,N/A,,Unknown,0,2012-10-29 13:54:00
10:54 AM,57.0,46.9,69,29.71,-9999.0,North,-9999.0,-,N/A,,Unknown,0,2012-10-29 14:54:00
11:54 AM,57.0,48.0,72,29.69,-9999.0,North,-9999.0,-,N/A,,Unknown,0,2012-10-29 15:54:00
12:54 PM,60.1,48.0,64,29.64,-9999.0,North,-9999.0,-,N/A,,Unknown,0,2012-10-29 16:54:00
1:54 PM,63.0,48.0,58,29.59,-9999.0,North,-9999.0,-,N/A,,Unknown,0,2012-10-29 17:54:00
2:54 PM,62.1,48.9,62,29.58,-9999.0,North,-9999.0,-,N/A,,Unknown,0,2012-10-29 18:54:00
3:54 PM,60.1,48.0,64,29.55,-9999.0,North,-9999.0,-,N/A,,Unknown,0,2012-10-29 19:54:00
4:54 PM,59.0,48.9,69,29.52,-9999.0,North,-9999.0,-,N/A,,Unknown,0,2012-10-29 20:54:00
5:54 PM,59.0,48.9,69,29.49,-9999.0,North,-9999.0,-,N/A,,Unknown,0,2012-10-29 21:54:00
6:54 PM,57.0,52.0,83,29.47,-9999.0,North,-9999.0,-,0.02,,Unknown,0,2012-10-29 22:54:00
7:54 PM,57.9,53.1,84,29.45,-9999.0,North,-9999.0,-,0.03,,Unknown,0,2012-10-29 23:54:00
8:54 PM,57.0,54.0,89,29.42,-9999.0,North,-9999.0,-,0.02,,Unknown,0,2012-10-30 00:54:00
9:54 PM,57.9,53.1,84,29.39,-9999.0,North,-9999.0,-,0.02,,Unknown,0,2012-10-30 01:54:00
10:54 PM,57.9,54.0,87,29.38,-9999.0,North,-9999.0,-,0.05,,Unknown,0,2012-10-30 02:54:00
11:54 PM,57.9,54.0,87,29.39,-9999.0,North,-9999.0,-,0.03,,Unknown,0,2012-10-30 03:54:00